26/4/18
Time         Wind Dir  Wind Gust   Humidity       Temp   Tot Rain Wind Chill Heat Index  Dew Point   Barom SL Temp Out H Temp Out L  DailyRain   HourRain   24HrRain   RainRate   Wind Run   Deg Heat   Deg Cool  MonthRain
                          km/hr          %         C         mm         C         C         C         mb         C         C         mm         mm         mm      mm/hr         km         C         C         mm
0:00              258       12.9         93       15.9      428.2       13.7       19.3       14.8     1014.1       15.9       15.9        0.0        0.8        4.0       0.00      163.9       1.07       0.56       89.8
0:02              258       20.9         92       15.9      428.2       11.9       19.2       14.6     1014.1       16.0       15.9        0.0        0.4        4.0       0.00        0.5       0.02       0.00       89.8
0:04              267       17.7         92       15.9      428.2       13.7       19.2       14.6     1014.1       16.0       15.9        0.0        0.4        4.0       0.00        0.9       0.02       0.00       89.8
0:06              267       14.5         92       15.9      428.2       12.5       19.2       14.6     1014.0       16.0       15.9        0.0        0.4        4.0       0.00        1.3       0.02       0.00       89.8
0:08              261       14.5         92       16.0      428.2       16.0       19.3       14.7     1014.0       16.0       15.9        0.0        0.4        4.0       0.00        1.8       0.02       0.00       89.8
0:10              261       12.9         92       16.0      428.2       13.2       19.3       14.7     1014.0       16.0       15.9        0.0        0.4        4.0       0.00        2.1       0.02       0.00       89.8
0:12              263       16.1         91       16.0      428.2       14.4       19.2       14.5     1014.0       16.1       15.9        0.0        0.4        4.0       0.00        2.5       0.02       0.00       89.8
0:14              264       19.3         91       16.1      428.2       12.0       19.3       14.6     1014.1       16.1       15.9        0.0        0.4        4.0       0.00        3.0       0.02       0.00       89.8
0:16              267       16.1         91       16.1      428.2       13.3       19.3       14.6     1014.1       16.1       15.9        0.0        0.4        4.0       0.00        3.4       0.04       0.00       89.8
0:18              264       20.9         91       16.1      428.2       14.6       19.3       14.6     1014.1       16.1       15.9        0.0        0.4        4.0       0.00        3.8       0.04       0.00       89.8
0:20              266       14.5         90       16.2      428.2       14.0       19.3       14.5     1014.1       16.2       15.9        0.0        0.4        4.0       0.00        4.3       0.04       0.00       89.8
0:22              275       17.7         90       16.2      428.2       12.8       19.4       14.6     1014.1       16.2       15.9        0.0        0.4        4.0       0.00        4.8       0.04       0.00       89.8
0:24              269       20.9         90       16.3      428.2       12.9       19.4       14.6     1014.0       16.3       15.9        0.0        0.4        4.0       0.00        5.2       0.04       0.00       89.8
0:26              269       12.9         90       16.3      428.2       16.3       19.4       14.6     1014.0       16.3       15.9        0.0        0.4        4.0       0.00        5.6       0.04       0.00       89.8
0:28              271       19.3         90       16.3      428.2       12.4       19.5       14.7     1014.1       16.3       15.9        0.0        0.4        4.0       0.00        6.1       0.04       0.00       89.8
0:30              269       19.3         90       16.3      428.2       13.6       19.5       14.7     1014.0       16.3       15.9        0.0        0.4        4.0       0.00        6.6       0.04       0.00       89.8
0:32              269       12.9         90       16.3      428.2       16.3       19.5       14.7     1014.0       16.3       15.9        0.0        0.0        4.0       0.00        7.0       0.06       0.00       89.8
0:34              271       17.7         90       16.3      428.2       12.9       19.5       14.7     1014.0       16.3       15.9        0.0        0.0        4.0       0.00        7.4       0.06       0.00       89.8
0:36              269       14.5         90       16.3      428.2       14.2       19.5       14.7     1014.1       16.3       15.9        0.0        0.0        4.0       0.00        7.8       0.06       0.00       89.8
0:38              267       12.9         90       16.3      428.2       14.2       19.5       14.7     1014.1       16.3       15.9        0.0        0.0        4.0       0.00        8.2       0.06       0.00       89.8
0:40              267        9.7         90       16.3      428.2       16.3       19.5       14.7     1014.1       16.3       15.9        0.0        0.0        4.0       0.00        8.5       0.06       0.00       89.8
0:42              267       16.1         90       16.3      428.2       16.3       19.5       14.7     1014.0       16.3       15.9        0.0        0.0        4.0       0.00        8.8       0.06       0.00       89.8
0:44              267        9.7         90       16.3      428.2       16.3       19.5       14.7     1014.1       16.4       15.9        0.0        0.0        4.0       0.00        9.0       0.06       0.00       89.8
0:46              268       16.1         90       16.3      428.2       16.3       19.5       14.7     1014.1       16.4       15.9        0.0        0.0        4.0       0.00        9.2       0.08       0.00       89.8
0:48              268        0.0         90       16.4      428.2       16.4       19.5       14.7     1014.2       16.4       15.9        0.0        0.0        4.0       0.00        9.4       0.08       0.00       89.8
0:50              268        0.0         90       16.3      428.2       16.3       19.5       14.7     1014.3       16.4       15.9        0.0        0.0        4.0       0.00        9.4       0.08       0.00       89.8
0:52              267       11.3         90       16.3      428.2       14.2       19.5       14.7     1014.5       16.4       15.9        0.0        0.0        4.0       0.00        9.5       0.08       0.00       89.8
0:54              268        0.0         90       16.4      428.2       16.4       19.5       14.7     1014.3       16.4       15.9        0.0        0.0        4.0       0.00        9.6       0.08       0.00       89.8
0:56              268        0.0         90       16.3      428.2       16.3       19.5       14.7     1014.3       16.4       15.9        0.0        0.0        4.0       0.00        9.6       0.08       0.00       89.8
0:58              267        0.0         90       16.3      428.2       16.3       19.5       14.7     1014.4       16.4       15.9        0.0        0.0        4.0       0.00        9.6       0.08       0.00       89.8
1:00              268        0.0         90       16.3      428.2       16.3       19.5       14.7     1014.4       16.4       15.9        0.0        0.0        4.0       0.00        9.6       0.08       0.00       89.8
1:02              268        0.0         90       16.3      428.2       16.3       19.5       14.7     1014.5       16.4       15.9        0.0        0.0        4.0       0.00        9.6       0.09       0.00       89.8
1:04              267        0.0         90       16.3      428.2       16.3       19.4       14.6     1014.4       16.4       15.9        0.0        0.0        4.0       0.00        9.7       0.09       0.00       89.8
1:06              268        0.0         90       16.3      428.2       16.3       19.4       14.6     1014.4       16.4       15.9        0.0        0.0        4.0       0.00        9.7       0.09       0.00       89.8
1:08              268        0.0         90       16.3      428.2       16.3       19.4       14.6     1014.3       16.4       15.9        0.0        0.0        4.0       0.00        9.7       0.09       0.00       89.8
1:10              268        6.4         90       16.3      428.2       16.3       19.4       14.6     1014.3       16.4       15.9        0.0        0.0        4.0       0.00        9.7       0.09       0.00       89.8
1:12              267        9.7         90       16.3      428.2       16.3       19.4       14.6     1014.3       16.4       15.9        0.0        0.0        4.0       0.00        9.9       0.09       0.00       89.8
1:14              267        3.2         90       16.2      428.2       16.2       19.4       14.6     1014.2       16.4       15.9        0.0        0.0        4.0       0.00       10.0       0.09       0.00       89.8
1:16              267        3.2         90       16.2      428.2       16.2       19.4       14.6     1014.2       16.4       15.9        0.0        0.0        4.0       0.00       10.2       0.11       0.00       89.8
1:18              268        4.8         90       16.2      428.2       16.2       19.4       14.6     1014.2       16.4       15.9        0.0        0.0        4.0       0.00       10.3       0.11       0.00       89.8
1:20              268        3.2         90       16.2      428.2       16.2       19.3       14.5     1014.4       16.4       15.9        0.0        0.0        4.0       0.00       10.4       0.11       0.00       89.8
1:22              268        0.0         90       16.2      428.2       16.2       19.3       14.5     1014.4       16.4       15.9        0.0        0.0        4.0       0.00       10.4       0.11       0.00       89.8
1:24              268        0.0         90       16.1      428.2       16.1       19.2       14.5     1014.4       16.4       15.9        0.0        0.0        4.0       0.00       10.4       0.11       0.00       89.8
1:26              268        0.0         90       16.1      428.2       16.1       19.2       14.5     1014.4       16.4       15.9        0.0        0.0        4.0       0.00       10.4       0.11       0.00       89.8
1:28              268        0.0         90       16.1      428.2       16.1       19.2       14.5     1014.2       16.4       15.9        0.0        0.0        4.0       0.00       10.4       0.11       0.00       89.8
1:30              268        0.0         91       16.1      428.2       16.1       19.3       14.6     1014.2       16.4       15.9        0.0        0.0        4.0       0.00       10.4       0.11       0.00       89.8
1:32              268        0.0         91       16.1      428.2       16.1       19.3       14.6     1014.2       16.4       15.9        0.0        0.0        4.0       0.00       10.4       0.13       0.00       89.8
1:34              268        0.0         91       16.1      428.2       16.1       19.3       14.6     1014.2       16.4       15.9        0.0        0.0        4.0       0.00       10.4       0.13       0.00       89.8
1:36              268        0.0         91       16.1      428.2       16.1       19.3       14.6     1014.3       16.4       15.9        0.0        0.0        4.0       0.00       10.4       0.13       0.00       89.8
1:38              268        0.0         91       16.1      428.2       16.1       19.3       14.6     1014.3       16.4       15.9        0.0        0.0        4.0       0.00       10.4       0.13       0.00       89.8
1:40              268        0.0         91       16.1      428.2       16.1       19.3       14.6     1014.2       16.4       15.9        0.0        0.0        4.0       0.00       10.4       0.13       0.00       89.8
1:42              268        0.0         91       16.1      428.2       16.1       19.3       14.6     1014.2       16.4       15.9        0.0        0.0        4.0       0.00       10.4       0.13       0.00       89.8
1:44              268        0.0         91       16.0      428.2       16.0       19.2       14.5     1014.2       16.4       15.9        0.0        0.0        4.0       0.00       10.4       0.13       0.00       89.8
1:46              268        0.0         91       16.0      428.2       16.0       19.2       14.5     1014.1       16.4       15.9        0.0        0.0        4.0       0.00       10.4       0.15       0.00       89.8
1:48              268        0.0         91       16.0      428.2       16.0       19.2       14.5     1014.1       16.4       15.9        0.0        0.0        4.0       0.00       10.4       0.15       0.00       89.8
1:50              268        0.0         91       15.9      428.2       15.9       19.2       14.5     1014.1       16.4       15.9        0.0        0.0        4.0       0.00       10.4       0.15       0.00       89.8
1:52              268        0.0         91       15.9      428.2       15.9       19.2       14.5     1014.1       16.4       15.9        0.0        0.0        4.0       0.00       10.4       0.15       0.00       89.8
1:54              268        0.0         91       15.9      428.2       15.9       19.2       14.5     1013.9       16.4       15.9        0.0        0.0        4.0       0.00       10.4       0.15       0.00       89.8
1:56              268        0.0         91       15.9      428.2       15.9       19.2       14.5     1014.0       16.4       15.9        0.0        0.0        4.0       0.00       10.4       0.15       0.00       89.8
1:58              267        0.0         91       15.9      428.2       15.9       19.2       14.5     1013.9       16.4       15.9        0.0        0.0        4.0       0.00       10.4       0.15       0.00       89.8
2:00              268        0.0         91       15.9      428.2       15.9       19.1       14.4     1014.0       16.4       15.9        0.0        0.0        4.0       0.00       10.4       0.15       0.00       89.8
2:02              268        0.0         91       15.9      428.2       15.9       19.1       14.4     1013.9       16.4       15.9        0.0        0.0        4.0       0.00       10.4       0.17       0.00       89.8
2:04              268        0.0         91       15.9      428.2       15.9       19.1       14.4     1013.9       16.4       15.9        0.0        0.0        4.0       0.00       10.4       0.17       0.00       89.8
2:06              267        0.0         91       15.9      428.2       15.9       19.1       14.4     1014.0       16.4       15.9        0.0        0.0        4.0       0.00       10.4       0.17       0.00       89.8
2:08              268        0.0         91       15.9      428.2       15.9       19.1       14.4     1013.9       16.4       15.9        0.0        0.0        4.0       0.00       10.4       0.17       0.00       89.8
2:10              267        0.0         91       15.8      428.2       15.8       19.0       14.4     1013.8       16.4       15.8        0.0        0.0        4.0       0.00       10.4       0.17       0.00       89.8
2:12              268        0.0         91       15.8      428.2       15.8       19.0       14.4     1013.9       16.4       15.8        0.0        0.0        4.0       0.00       10.4       0.17       0.00       89.8
2:14              267        0.0         91       15.8      428.2       15.8       19.0       14.4     1013.8       16.4       15.8        0.0        0.0        4.0       0.00       10.4       0.17       0.00       89.8
2:16              268        0.0         92       15.8      428.2       15.8       19.1       14.5     1013.8       16.4       15.8        0.0        0.0        4.0       0.00       10.4       0.20       0.00       89.8
2:18              267        0.0         92       15.8      428.2       15.8       19.1       14.5     1013.9       16.4       15.8        0.0        0.0        4.0       0.00       10.4       0.20       0.00       89.8
2:20              268        0.0         92       15.8      428.2       15.8       19.1       14.5     1013.8       16.4       15.8        0.0        0.0        4.0       0.00       10.4       0.20       0.00       89.8
2:22              268        0.0         92       15.8      428.2       15.8       19.1       14.5     1013.9       16.4       15.8        0.0        0.0        4.0       0.00       10.4       0.20       0.00       89.8
2:24              268        0.0         92       15.8      428.2       15.8       19.1       14.5     1013.8       16.4       15.7        0.0        0.0        4.0       0.00       10.4       0.20       0.00       89.8
2:26              268        0.0         92       15.7      428.2       15.7       19.0       14.4     1013.9       16.4       15.7        0.0        0.0        4.0       0.00       10.4       0.20       0.00       89.8
2:28              268        0.0         92       15.7      428.2       15.7       19.0       14.4     1013.9       16.4       15.7        0.0        0.0        4.0       0.00       10.4       0.20       0.00       89.8
2:30              267        0.0         92       15.7      428.2       15.7       19.0       14.4     1013.8       16.4       15.7        0.0        0.0        4.0       0.00       10.4       0.20       0.00       89.8
2:32              268        0.0         92       15.7      428.2       15.7       19.0       14.4     1013.7       16.4       15.7        0.0        0.0        4.0       0.00       10.4       0.22       0.00       89.8
2:34              268        0.0         92       15.7      428.2       15.7       19.0       14.4     1013.7       16.4       15.7        0.0        0.0        4.0       0.00       10.4       0.22       0.00       89.8
2:36              268        0.0         92       15.7      428.2       15.7       19.0       14.4     1013.7       16.4       15.7        0.0        0.0        4.0       0.00       10.4       0.22       0.00       89.8
2:38              268        0.0         92       15.7      428.2       15.7       19.0       14.4     1013.8       16.4       15.7        0.0        0.0        4.0       0.00       10.4       0.22       0.00       89.8
2:40              268        0.0         92       15.7      428.2       15.7       19.0       14.4     1013.8       16.4       15.6        0.0        0.0        4.0       0.00       10.4       0.22       0.00       89.8
2:42              268        0.0         92       15.6      428.2       15.6       18.9       14.3     1013.8       16.4       15.6        0.0        0.0        4.0       0.00       10.4       0.22       0.00       89.8
2:44              267        0.0         92       15.6      428.2       15.6       18.9       14.3     1013.8       16.4       15.6        0.0        0.0        4.0       0.00       10.4       0.22       0.00       89.8
2:46              268        0.0         92       15.6      428.2       15.6       18.9       14.3     1014.0       16.4       15.6        0.0        0.0        4.0       0.00       10.4       0.25       0.00       89.8
2:48              268        0.0         92       15.6      428.2       15.6       18.9       14.3     1014.0       16.4       15.6        0.0        0.0        4.0       0.00       10.4       0.25       0.00       89.8
2:50              268        0.0         92       15.6      428.2       15.6       18.9       14.3     1014.0       16.4       15.6        0.0        0.0        4.0       0.00       10.4       0.25       0.00       89.8
2:52              267        0.0         92       15.6      428.2       15.6       18.9       14.3     1014.1       16.4       15.6        0.0        0.0        4.0       0.00       10.4       0.25       0.00       89.8
2:54              267        0.0         92       15.6      428.2       15.6       18.9       14.3     1014.1       16.4       15.6        0.0        0.0        4.0       0.00       10.4       0.25       0.00       89.8
2:56              267        9.7         92       15.6      428.2       14.0       18.9       14.3     1014.1       16.4       15.6        0.0        0.0        4.0       0.00       10.4       0.25       0.00       89.8
2:58              267        6.4         92       15.6      428.2       15.6       18.9       14.3     1014.0       16.4       15.6        0.0        0.0        4.0       0.00       10.6       0.25       0.00       89.8
3:00              261        6.4         92       15.6      428.2       15.6       18.9       14.3     1014.0       16.4       15.6        0.0        0.0        4.0       0.00       10.8       0.25       0.00       89.8
3:02              250        8.0         92       15.6      428.2       15.6       18.9       14.3     1014.1       16.4       15.6        0.0        0.0        4.0       0.00       11.1       0.27       0.00       89.8
3:04              223       11.3         93       15.7      428.2       14.1       19.0       14.5     1014.1       16.4       15.6        0.0        0.0        4.0       0.00       11.4       0.27       0.00       89.8
3:06              199        9.7         93       15.7      428.2       14.8       19.1       14.6     1014.1       16.4       15.6        0.0        0.0        4.0       0.00       11.7       0.27       0.00       89.8
3:08              182       11.3         93       15.8      428.2       14.8       19.2       14.7     1014.1       16.4       15.6        0.0        0.0        4.0       0.00       12.0       0.27       0.00       89.8
3:10              182       20.9         93       15.8      428.2       10.6       19.2       14.7     1014.1       16.4       15.6        0.0        0.0        4.0       0.00       12.3       0.27       0.00       89.8
3:12              175       20.9         93       15.8      428.2       12.3       19.2       14.7     1014.0       16.4       15.6        0.0        0.0        4.0       0.00       12.9       0.27       0.00       89.8
3:14              178       12.9         93       15.8      428.2       14.3       19.2       14.7     1014.0       16.4       15.6        0.0        0.0        4.0       0.00       13.3       0.27       0.00       89.8
3:16              182       14.5         93       15.8      428.2       12.3       19.2       14.7     1014.0       16.4       15.6        0.0        0.0        4.0       0.00       13.7       0.29       0.00       89.8
3:18              186       11.3         93       15.8      428.2       15.8       19.2       14.7     1014.0       16.4       15.6        0.0        0.0        4.0       0.00       14.1       0.29       0.00       89.8
3:20              180       11.3         93       15.8      428.2       14.2       19.2       14.7     1014.0       16.4       15.6        0.0        0.0        4.0       0.00       14.4       0.29       0.00       89.8
3:22              180       12.9         93       15.7      428.2       14.8       19.1       14.6     1014.0       16.4       15.6        0.0        0.0        4.0       0.00       14.7       0.29       0.00       89.8
3:24              182        9.7         93       15.7      428.2       15.7       19.1       14.6     1014.0       16.4       15.6        0.0        0.0        4.0       0.00       15.0       0.29       0.00       89.8
3:26              184       11.3         93       15.7      428.2       14.1       19.0       14.5     1014.0       16.4       15.6        0.0        0.0        4.0       0.00       15.2       0.29       0.00       89.8
3:28              178        9.7         93       15.6      428.2       15.6       19.0       14.5     1014.0       16.4       15.6        0.0        0.0        4.0       0.00       15.5       0.29       0.00       89.8
3:30              178       12.9         93       15.6      428.2       14.7       19.0       14.5     1014.0       16.4       15.6        0.0        0.0        4.0       0.00       15.7       0.29       0.00       89.8
3:32              178        4.8         93       15.6      428.2       15.6       18.9       14.4     1014.0       16.4       15.6        0.0        0.0        4.0       0.00       16.0       0.32       0.00       89.8
3:34              179        8.0         93       15.5      428.2       15.5       18.9       14.4     1013.9       16.4       15.5        0.0        0.0        4.0       0.00       16.2       0.32       0.00       89.8
3:36              183       16.1         93       15.5      428.2       12.6       18.9       14.4     1014.1       16.4       15.5        0.0        0.0        4.0       0.00       16.5       0.32       0.00       89.8
3:38              186       14.5         93       15.4      428.2       13.2       18.8       14.3     1014.0       16.4       15.4        0.0        0.0        4.0       0.00       16.8       0.32       0.00       89.8
3:40              182       19.3         93       15.4      428.2       13.2       18.8       14.3     1014.1       16.4       15.4        0.0        0.0        4.0       0.00       17.2       0.32       0.00       89.8
3:42              182        8.0         93       15.4      428.2       14.4       18.8       14.3     1014.0       16.4       15.4        0.0        0.0        4.0       0.00       17.4       0.32       0.00       89.8
3:44              182       11.3         93       15.4      428.2       13.8       18.8       14.3     1014.0       16.4       15.4        0.0        0.0        4.0       0.00       17.7       0.32       0.00       89.8
3:46              182        6.4         93       15.3      428.2       15.3       18.7       14.2     1013.9       16.4       15.3        0.0        0.0        4.0       0.00       17.8       0.34       0.00       89.8
3:48              182        8.0         93       15.3      428.2       15.3       18.7       14.2     1013.9       16.4       15.3        0.0        0.0        4.0       0.00       18.0       0.34       0.00       89.8
3:50              182        4.8         93       15.3      428.2       15.3       18.7       14.2     1014.0       16.4       15.3        0.0        0.0        4.0       0.00       18.2       0.34       0.00       89.8
3:52              182        0.0         93       15.3      428.2       15.3       18.7       14.2     1014.0       16.4       15.3        0.0        0.0        4.0       0.00       18.2       0.34       0.00       89.8
3:54              182        0.0         93       15.3      428.2       15.3       18.7       14.2     1014.0       16.4       15.3        0.0        0.0        4.0       0.00       18.2       0.34       0.00       89.8
3:56              182        6.4         93       15.3      428.2       15.3       18.7       14.2     1014.0       16.4       15.3        0.0        0.0        4.0       0.00       18.3       0.34       0.00       89.8
3:58              182        4.8         93       15.3      428.2       15.3       18.7       14.2     1014.0       16.4       15.3        0.0        0.0        4.0       0.00       18.4       0.34       0.00       89.8
4:00              182        9.7         93       15.3      428.2       15.3       18.7       14.2     1014.0       16.4       15.3        0.0        0.0        4.0       0.00       18.6       0.34       0.00       89.8
4:02              182        8.0         93       15.2      428.2       14.3       18.6       14.1     1014.1       16.4       15.2        0.0        0.0        4.0       0.00       18.7       0.37       0.00       89.8
4:04              182        4.8         93       15.2      428.2       15.2       18.6       14.1     1014.1       16.4       15.2        0.0        0.0        4.0       0.00       18.8       0.37       0.00       89.8
4:06              182        6.4         93       15.2      428.2       15.2       18.6       14.1     1014.0       16.4       15.2        0.0        0.0        4.0       0.00       19.0       0.37       0.00       89.8
4:08              182        8.0         93       15.2      428.2       15.2       18.6       14.1     1014.0       16.4       15.2        0.0        0.0        4.0       0.00       19.2       0.37       0.00       89.8
4:10              182        3.2         93       15.2      428.2       15.2       18.6       14.1     1014.0       16.4       15.2        0.0        0.0        4.0       0.00       19.3       0.37       0.00       89.8
4:12              182        4.8         93       15.2      428.2       15.2       18.5       14.0     1014.1       16.4       15.2        0.0        0.0        4.0       0.00       19.4       0.37       0.00       89.8
4:14              182        6.4         93       15.2      428.2       15.2       18.5       14.0     1014.1       16.4       15.2        0.0        0.0        4.0       0.00       19.6       0.37       0.00       89.8
4:16              182       11.3         93       15.2      428.2       15.2       18.5       14.0     1014.1       16.4       15.2        0.0        0.0        4.0       0.00       19.8       0.40       0.00       89.8
4:18              182        8.0         94       15.2      428.2       15.2       18.6       14.2     1014.1       16.4       15.2        0.0        0.0        4.0       0.00       19.9       0.40       0.00       89.8
4:20              182        9.7         94       15.2      428.2       15.2       18.6       14.2     1014.0       16.4       15.2        0.0        0.0        4.0       0.00       20.1       0.40       0.00       89.8
4:22              183        8.0         94       15.2      428.2       15.2       18.6       14.2     1014.0       16.4       15.2        0.0        0.0        4.0       0.00       20.3       0.40       0.00       89.8
4:24              183        8.0         93       15.2      428.2       14.2       18.5       14.0     1014.0       16.4       15.1        0.0        0.0        4.0       0.00       20.4       0.40       0.00       89.8
4:26              183        8.0         93       15.1      428.2       15.1       18.5       14.0     1014.1       16.4       15.1        0.0        0.0        4.0       0.00       20.7       0.40       0.00       89.8
4:28              183        6.4         93       15.1      428.2       15.1       18.5       14.0     1014.0       16.4       15.1        0.0        0.0        4.0       0.00       21.0       0.40       0.00       89.8
4:30              183        9.7         93       15.1      428.2       15.1       18.5       14.0     1014.0       16.4       15.1        0.0        0.0        4.0       0.00       21.2       0.40       0.00       89.8
4:32              183       11.3         93       15.1      428.2       14.1       18.5       14.0     1014.1       16.4       15.1        0.0        0.0        4.0       0.00       21.4       0.43       0.00       89.8
4:34              183       12.9         93       15.1      428.2       12.1       18.4       13.9     1014.1       16.4       15.1        0.0        0.0        4.0       0.00       21.7       0.43       0.00       89.8
4:36              184        8.0         93       15.1      428.2       15.1       18.4       13.9     1014.1       16.4       15.1        0.0        0.0        4.0       0.00       21.9       0.43       0.00       89.8
4:38              183        8.0         93       15.0      428.2       15.0       18.4       13.9     1014.1       16.4       15.0        0.0        0.0        4.0       0.00       22.1       0.43       0.00       89.8
4:39              183        9.7         93       15.0      428.2       14.0       18.4       13.9     1014.1       16.4       15.0        0.0        0.0        4.0       0.00       22.3       0.43       0.00       89.8
4:42              183        4.8         94       15.0      428.2       15.0       18.5       14.0     1014.1       16.4       15.0        0.0        0.0        4.0       0.00       22.4       0.43       0.00       89.8
4:44              184        8.0         94       14.9      428.2       14.0       18.4       14.0     1014.1       16.4       14.9        0.0        0.0        4.0       0.00       22.6       0.43       0.00       89.8
4:46              183       11.3         94       14.9      428.2       14.9       18.4       14.0     1014.0       16.4       14.9        0.0        0.0        4.0       0.00       22.8       0.46       0.00       89.8
4:48              183       11.3         94       14.9      428.2       12.6       18.4       13.9     1014.0       16.4       14.9        0.0        0.0        4.0       0.00       23.1       0.46       0.00       89.8
4:50              183       11.3         94       14.9      428.2       12.6       18.4       13.9     1014.0       16.4       14.9        0.0        0.0        4.0       0.00       23.2       0.46       0.00       89.8
4:52              183        3.2         94       14.9      428.2       14.9       18.4       13.9     1014.0       16.4       14.9        0.0        0.0        4.0       0.00       23.4       0.46       0.00       89.8
4:54              183        9.7         94       14.9      428.2       14.9       18.4       13.9     1014.0       16.4       14.9        0.0        0.0        4.0       0.00       23.6       0.46       0.00       89.8
4:56              183        8.0         94       14.9      428.2       13.9       18.4       13.9     1014.0       16.4       14.9        0.0        0.0        4.0       0.00       23.7       0.46       0.00       89.8
4:58              184        4.8         94       14.8      428.2       14.8       18.3       13.9     1014.1       16.4       14.8        0.0        0.0        4.0       0.00       23.9       0.46       0.00       89.8
5:00              183        4.8         94       14.8      428.2       14.8       18.3       13.9     1014.1       16.4       14.8        0.0        0.0        4.0       0.00       24.0       0.46       0.00       89.8
5:02              183        4.8         94       14.8      428.2       14.8       18.3       13.9     1014.1       16.4       14.8        0.0        0.0        4.0       0.00       24.0       0.50       0.00       89.8
5:04              184        6.4         94       14.8      428.2       14.8       18.3       13.9     1014.1       16.4       14.8        0.0        0.0        4.0       0.00       24.1       0.50       0.00       89.8
5:06              183        4.8         94       14.8      428.2       14.8       18.3       13.9     1014.2       16.4       14.8        0.0        0.0        4.0       0.00       24.2       0.50       0.00       89.8
5:08              184        1.6         94       14.8      428.2       14.8       18.3       13.9     1014.2       16.4       14.8        0.0        0.0        4.0       0.00       24.3       0.50       0.00       89.8
5:10              183        0.0         94       14.8      428.2       14.8       18.3       13.9     1014.2       16.4       14.8        0.0        0.0        4.0       0.00       24.3       0.50       0.00       89.8
5:12              183        0.0         94       14.8      428.2       14.8       18.2       13.8     1014.2       16.4       14.8        0.0        0.0        4.0       0.00       24.3       0.50       0.00       89.8
5:14              183        0.0         94       14.8      428.2       14.8       18.3       13.9     1014.2       16.4       14.8        0.0        0.0        4.0       0.00       24.3       0.50       0.00       89.8
5:16              183        0.0         94       14.8      428.2       14.8       18.2       13.8     1014.3       16.4       14.8        0.0        0.0        4.0       0.00       24.3       0.53       0.00       89.8
5:18              183        0.0         94       14.8      428.2       14.8       18.3       13.9     1014.3       16.4       14.8        0.0        0.0        4.0       0.00       24.3       0.53       0.00       89.8
5:20              184        0.0         94       14.8      428.2       14.8       18.3       13.9     1014.2       16.4       14.8        0.0        0.0        4.0       0.00       24.3       0.53       0.00       89.8
5:22              184        0.0         94       14.8      428.2       14.8       18.3       13.9     1014.2       16.4       14.8        0.0        0.0        4.0       0.00       24.3       0.53       0.00       89.8
5:24              183        0.0         94       14.8      428.2       14.8       18.3       13.9     1014.3       16.4       14.8        0.0        0.0        4.0       0.00       24.3       0.53       0.00       89.8
5:26              183        0.0         94       14.8      428.2       14.8       18.3       13.9     1014.3       16.4       14.8        0.0        0.0        4.0       0.00       24.3       0.53       0.00       89.8
5:28              184        0.0         94       14.8      428.2       14.8       18.3       13.9     1014.3       16.4       14.8        0.0        0.0        4.0       0.00       24.3       0.53       0.00       89.8
5:30              184        0.0         94       14.8      428.2       14.8       18.3       13.9     1014.2       16.4       14.8        0.0        0.0        4.0       0.00       24.3       0.53       0.00       89.8
5:32              183        0.0         94       14.8      428.2       14.8       18.3       13.9     1014.4       16.4       14.8        0.0        0.0        4.0       0.00       24.3       0.56       0.00       89.8
5:34              184        0.0         94       14.8      428.2       14.8       18.3       13.9     1014.4       16.4       14.8        0.0        0.0        4.0       0.00       24.3       0.56       0.00       89.8
5:36              184        0.0         94       14.8      428.2       14.8       18.3       13.9     1014.4       16.4       14.8        0.0        0.0        4.0       0.00       24.3       0.56       0.00       89.8
5:38              183        0.0         94       14.8      428.2       14.8       18.3       13.9     1014.5       16.4       14.8        0.0        0.0        4.0       0.00       24.3       0.56       0.00       89.8
5:40              183        0.0         94       14.8      428.2       14.8       18.3       13.9     1014.5       16.4       14.8        0.0        0.0        4.0       0.00       24.3       0.56       0.00       89.8
5:42              184        0.0         94       14.8      428.2       14.8       18.3       13.9     1014.5       16.4       14.8        0.0        0.0        4.0       0.00       24.3       0.56       0.00       89.8
5:43              183        0.0         94       14.8      428.2       14.8       18.2       13.8     1014.6       16.4       14.8        0.0        0.0        4.0       0.00       24.3       0.56       0.00       89.8
5:46              183        0.0         94       14.8      428.2       14.8       18.2       13.8     1014.6       16.4       14.8        0.0        0.0        4.0       0.00       24.3       0.60       0.00       89.8
5:48              183        0.0         94       14.8      428.2       14.8       18.2       13.8     1014.6       16.4       14.8        0.0        0.0        4.0       0.00       24.3       0.60       0.00       89.8
5:49              184        0.0         94       14.8      428.2       14.8       18.2       13.8     1014.6       16.4       14.8        0.0        0.0        4.0       0.00       24.3       0.60       0.00       89.8
5:52              183        0.0         94       14.8      428.2       14.8       18.2       13.8     1014.6       16.4       14.8        0.0        0.0        4.0       0.00       24.3       0.60       0.00       89.8
5:54              183        0.0         94       14.8      428.2       14.8       18.2       13.8     1014.6       16.4       14.8        0.0        0.0        4.0       0.00       24.3       0.60       0.00       89.8
5:56              183        0.0         94       14.8      428.2       14.8       18.2       13.8     1014.7       16.4       14.8        0.0        0.0        4.0       0.00       24.3       0.60       0.00       89.8
5:58              183        0.0         94       14.8      428.2       14.8       18.2       13.8     1014.7       16.4       14.8        0.0        0.0        4.0       0.00       24.3       0.60       0.00       89.8
6:00              184        0.0         94       14.8      428.2       14.8       18.2       13.8     1014.8       16.4       14.8        0.0        0.0        4.0       0.00       24.3       0.60       0.00       89.8
6:01              184        0.0         94       14.8      428.2       14.8       18.3       13.9     1014.8       16.4       14.8        0.0        0.0        4.0       0.00       24.3       0.63       0.00       89.8
6:04              184        0.0         94       14.8      428.2       14.8       18.3       13.9     1014.8       16.4       14.8        0.0        0.0        4.0       0.00       24.3       0.63       0.00       89.8
6:06              183        0.0         94       14.8      428.2       14.8       18.3       13.9     1014.8       16.4       14.8        0.0        0.0        4.0       0.00       24.3       0.63       0.00       89.8
6:07              183        0.0         94       14.9      428.2       14.9       18.4       13.9     1014.8       16.4       14.8        0.0        0.0        4.0       0.00       24.3       0.63       0.00       89.8
6:10              183        0.0         94       14.9      428.2       14.9       18.4       13.9     1014.9       16.4       14.8        0.0        0.0        4.0       0.00       24.3       0.63       0.00       89.8
6:12              183        0.0         94       14.9      428.2       14.9       18.4       13.9     1014.9       16.4       14.8        0.0        0.0        4.0       0.00       24.3       0.63       0.00       89.8
6:14              183        0.0         94       14.9      428.2       14.9       18.4       13.9     1014.9       16.4       14.8        0.0        0.0        4.0       0.00       24.3       0.63       0.00       89.8
6:16              183        0.0         94       14.9      428.2       14.9       18.4       13.9     1014.9       16.4       14.8        0.0        0.0        4.0       0.00       24.3       0.66       0.00       89.8
6:18              183        0.0         94       14.9      428.2       14.9       18.4       13.9     1015.0       16.4       14.8        0.0        0.0        4.0       0.00       24.3       0.66       0.00       89.8
6:20              184        0.0         94       15.1      428.2       15.1       18.5       14.1     1015.0       16.4       14.8        0.0        0.0        4.0       0.00       24.3       0.66       0.00       89.8
6:22              184        0.0         94       15.1      428.2       15.1       18.5       14.1     1015.0       16.4       14.8        0.0        0.0        4.0       0.00       24.3       0.66       0.00       89.8
6:24              184        0.0         94       15.1      428.2       15.1       18.5       14.1     1015.1       16.4       14.8        0.0        0.0        4.0       0.00       24.3       0.66       0.00       89.8
6:26              183        0.0         94       15.0      428.2       15.0       18.5       14.0     1015.1       16.4       14.8        0.0        0.0        4.0       0.00       24.3       0.66       0.00       89.8
6:27              183        0.0         95       15.1      428.2       15.1       18.6       14.3     1015.2       16.4       14.8        0.0        0.0        4.0       0.00       24.3       0.66       0.00       89.8
6:30              183        0.0         95       15.1      428.2       15.1       18.6       14.3     1015.4       16.4       14.8        0.0        0.0        4.0       0.00       24.3       0.66       0.00       89.8
6:32              183        0.0         95       15.1      428.2       15.1       18.6       14.3     1015.4       16.4       14.8        0.0        0.0        4.0       0.00       24.3       0.69       0.00       89.8
6:34              183        0.0         95       15.1      428.2       15.1       18.7       14.3     1015.4       16.4       14.8        0.0        0.0        4.0       0.00       24.3       0.69       0.00       89.8
6:36              183        0.0         95       15.2      428.2       15.2       18.7       14.4     1015.4       16.4       14.8        0.0        0.0        4.0       0.00       24.3       0.69       0.00       89.8
6:38              184        6.4         95       15.2      428.2       15.2       18.7       14.4     1015.4       16.4       14.8        0.0        0.0        4.0       0.00       24.3       0.69       0.00       89.8
6:40              183        0.0         94       15.2      428.2       15.2       18.7       14.3     1015.4       16.4       14.8        0.0        0.0        4.0       0.00       24.3       0.69       0.00       89.8
6:42              183        0.0         95       15.2      428.2       15.2       18.8       14.4     1015.6       16.4       14.8        0.0        0.0        4.0       0.00       24.3       0.69       0.00       89.8
6:44              183        0.0         95       15.2      428.2       15.2       18.8       14.4     1015.5       16.4       14.8        0.0        0.0        4.0       0.00       24.3       0.69       0.00       89.8
6:46              184        0.0         95       15.3      428.2       15.3       18.8       14.5     1015.5       16.4       14.8        0.0        0.0        4.0       0.00       24.3       0.72       0.00       89.8
6:48              183        0.0         94       15.3      428.2       15.3       18.7       14.3     1015.6       16.4       14.8        0.0        0.0        4.0       0.00       24.3       0.72       0.00       89.8
6:50              183        0.0         95       15.3      428.2       15.3       18.8       14.5     1015.6       16.4       14.8        0.0        0.0        4.0       0.00       24.3       0.72       0.00       89.8
6:52              183        0.0         95       15.3      428.2       15.3       18.9       14.5     1015.6       16.4       14.8        0.0        0.0        4.0       0.00       24.3       0.72       0.00       89.8
6:54              184        0.0         95       15.3      428.2       15.3       18.9       14.5     1015.7       16.4       14.8        0.0        0.0        4.0       0.00       24.3       0.72       0.00       89.8
6:56              184        0.0         95       15.4      428.2       15.4       18.9       14.6     1015.7       16.4       14.8        0.0        0.0        4.0       0.00       24.3       0.72       0.00       89.8
6:58              183        0.0         95       15.4      428.2       15.4       18.9       14.6     1015.8       16.4       14.8        0.0        0.0        4.0       0.00       24.3       0.72       0.00       89.8
7:00              184        0.0         95       15.4      428.2       15.4       18.9       14.6     1015.8       16.4       14.8        0.0        0.0        4.0       0.00       24.3       0.72       0.00       89.8
7:02              183        0.0         95       15.4      428.2       15.4       19.0       14.6     1015.7       16.4       14.8        0.0        0.0        4.0       0.00       24.3       0.75       0.00       89.8
7:04              183        0.0         95       15.4      428.2       15.4       19.0       14.6     1015.8       16.4       14.8        0.0        0.0        4.0       0.00       24.3       0.75       0.00       89.8
7:06              183        0.0         95       15.5      428.2       15.5       19.1       14.7     1015.8       16.4       14.8        0.0        0.0        4.0       0.00       24.3       0.75       0.00       89.8
7:08              184        0.0         95       15.5      428.2       15.5       19.1       14.7     1015.8       16.4       14.8        0.0        0.0        4.0       0.00       24.3       0.75       0.00       89.8
7:10              184        0.0         95       15.5      428.2       15.5       19.1       14.7     1015.8       16.4       14.8        0.0        0.0        4.0       0.00       24.3       0.75       0.00       89.8
7:12              184        0.0         95       15.6      428.2       15.6       19.1       14.8     1015.8       16.4       14.8        0.0        0.0        4.0       0.00       24.3       0.75       0.00       89.8
7:14              183        0.0         95       15.6      428.2       15.6       19.1       14.8     1015.8       16.4       14.8        0.0        0.0        4.0       0.00       24.3       0.75       0.00       89.8
7:16              183        0.0         94       15.6      428.2       15.6       19.0       14.6     1015.8       16.4       14.8        0.0        0.0        4.0       0.00       24.3       0.78       0.00       89.8
7:18              183        0.0         94       15.6      428.2       15.6       19.0       14.6     1015.7       16.4       14.8        0.0        0.0        4.0       0.00       24.3       0.78       0.00       89.8
7:20              183        0.0         95       15.6      428.2       15.6       19.2       14.8     1015.7       16.4       14.8        0.0        0.0        4.0       0.00       24.3       0.78       0.00       89.8
7:22              183        0.0         95       15.6      428.2       15.6       19.2       14.8     1015.7       16.4       14.8        0.0        0.0        4.0       0.00       24.3       0.78       0.00       89.8
7:24              183        0.0         94       15.6      428.2       15.6       19.1       14.7     1015.7       16.4       14.8        0.0        0.0        4.0       0.00       24.3       0.78       0.00       89.8
7:26              183        0.0         94       15.6      428.2       15.6       19.1       14.7     1015.7       16.4       14.8        0.0        0.0        4.0       0.00       24.3       0.78       0.00       89.8
7:28              183        0.0         95       15.6      428.2       15.6       19.2       14.8     1015.8       16.4       14.8        0.0        0.0        4.0       0.00       24.3       0.78       0.00       89.8